Home   Weather   Mehamn   Past weeks

Flag for Norway Past Weather in Mehamn, Norway — Yesterday and Last 2 Weeks

Now
38 °F

Chilly.


Feels Like: 32 °F
Forecast: 29 / 40 °F
Wind: 9 mph from Southwest

Location: Mehamn

Current Time: Apr 29, 2017 at 7:39:08 am

Latest Report: Apr 29, 2017 at 7:00 am


Visibility: N/A

Pressure: 30.42 "Hg

Humidity: 72%

Dew Point: 30 °F

Location of MehamnLocation

Past Weather in Mehamn — Graph

°F

Mehamn Temperature Yesterday

Maximum temperature yesterday: 39 °F (at 3:00 pm)
Minimum temperature yesterday: 26 °F (at 3:00 am)
Average temperature yesterday: 35 °F

High & Low Weather Summary for the Past Weeks

 TemperatureHumidityPressure
High40 °F (Apr 21, 10:00 am)93% (Apr 19, 1:00 am)30.41 "Hg (Apr 19, 1:00 am)
Low16 °F (Apr 17, 1:00 am)44% (Apr 26, 2:00 pm)29.18 "Hg (Apr 21, 3:00 am)
Average30 °F74%29.87 "Hg
* Reported Apr 14 6:00 am — Apr 29 6:00 am, Mehamn, Weather by CustomWeather, © 2017

Note: Actual official high and low records may vary slightly from our data, if they occured in-between our weather recording intervals... More about our weather records

Advertising

Mehamn Weather History for the Previous 24 Hours

Scroll right to see more
 ConditionsComfort  
Time TempWeatherWind HumidityBarometerVisibility
6:00 am
Sat, Apr 29
37 °FChilly.9 mph74%30.41 "HgN/A
5:00 am37 °FChilly.9 mph77%30.40 "HgN/A
4:00 am37 °FChilly.10 mph78%30.39 "HgN/A
3:00 am37 °FChilly.9 mph77%30.38 "HgN/A
2:00 am37 °FChilly.10 mph79%30.36 "HgN/A
1:00 am37 °FChilly.10 mph81%30.35 "HgN/A
12:00 am37 °FChilly.9 mph81%30.34 "HgN/A
11:00 pm
Fri, Apr 28
37 °FChilly.10 mph80%30.33 "HgN/A
10:00 pm36 °FChilly.8 mph82%30.32 "HgN/A
9:00 pm36 °FChilly.10 mph79%30.31 "HgN/A
8:00 pm36 °FChilly.10 mph79%30.30 "HgN/A
7:00 pm37 °FChilly.8 mph77%30.29 "HgN/A
6:00 pm38 °FChilly.9 mph74%30.29 "HgN/A
5:00 pm38 °FChilly.9 mph75%30.28 "HgN/A
4:00 pm38 °FChilly.10 mph71%30.27 "HgN/A
3:00 pm39 °FChilly.9 mph68%30.26 "HgN/A
2:00 pm38 °FChilly.9 mph69%30.24 "HgN/A
1:00 pm38 °FChilly.7 mph68%30.23 "HgN/A
12:00 pm38 °FChilly.8 mph66%30.22 "HgN/A
11:00 am37 °FChilly.7 mph71%30.20 "HgN/A
10:00 am38 °FChilly.8 mph70%30.19 "HgN/A
9:00 am38 °FChilly.8 mph72%30.17 "HgN/A
8:00 am36 °FChilly.8 mph75%30.16 "HgN/A
7:00 am36 °FChilly.6 mph71%30.14 "HgN/A
Weather by CustomWeather, © 2017

See weather overviewHow to use our weather pages